[[{"header":{"parameterUnit":"m.s-1","parameterCategory":1,"la1":30.2991,"la2":30.254,"lo1":-89.0895,"lo2":-89.0444,"dy":0.0017,"dx":0.0017,"nx":28,"ny":28,"refTime":"2024-08-06T03:00:00:Z","depth":0,"parameterNumber":2,"parameterNumberName":"U-component_of_WINDS"},"data":[0,0,0,0,0,0,0,0,0,0,0,0,0,0,0,0,0,0,0,0,0,0,0,0,0,0,0,0,0,0,0,0,0,0,0,0,0,0,0,0,0,0,0,0,0,0,0,0,0,0,0,0,0,0,0,0,0,0,3.0954,3.0955,0,3.1,3.1,3.1001,3.0935,3.0933,3.0931,3.0928,3.0978,3.0981,3.0985,0,0,0,0,0,0,0,0,0,0,0,0,0,3.0817,3.0819,3.0954,3.0955,3.0955,3.1,3.1,3.1001,3.0936,3.0933,3.093,3.0927,3.0977,3.0981,3.0985,0,0,0,0,0,0,0,0,0,0,0,0,0,3.0871,3.082,3.0954,3.0928,3.0926,3.1,3.1,3.1001,3.0936,3.0933,3.0929,3.0926,3.0975,3.098,3.0986,3.1088,0,0,3.1002,3.1004,0,0,0,0,0,0,0,0,3.0868,3.0876,3.0931,3.093,3.0928,3.0958,3.097,3.103,3.0937,3.0932,3.0928,3.0924,3.0974,3.0979,3.0996,3.109,3.1092,3.1002,3.1005,3.1008,3.1009,0,0,0,0,0,0,0,3.0864,3.0874,3.0972,3.0932,3.093,3.0916,3.092,3.0981,3.0973,3.0933,3.0928,3.0934,3.0973,3.0991,3.0996,3.1093,3.1002,3.1007,3.101,3.1012,3.128,3.1283,0,0,0,0,0,0,3.0863,3.0871,3.0971,3.0974,3.0889,3.0921,3.0926,3.0952,3.0972,3.0971,3.0937,3.0931,3.0984,3.099,3.0998,3.1123,3.1007,3.1012,3.1015,3.1276,3.1281,3.1285,0,0,0,0,0,0,3.086,3.0872,3.0969,3.0921,3.0932,3.0927,3.0958,3.0955,3.0973,3.0975,3.0974,3.0957,3.0981,3.0991,3.1067,3.1123,3.1015,3.1019,3.1271,3.1277,3.1283,3.137,0,0,0,0,0,0,3.0856,3.0872,3.0909,3.0922,3.0935,3.1036,3.0961,3.0958,3.0982,3.0974,3.0993,3.0993,3.0979,3.106,3.1072,3.1128,3.1024,3.1266,3.1274,3.1281,3.1363,3.1379,3.1393,0,0,0,0,0,3.0852,3.0931,3.0911,3.0923,3.0981,3.1039,3.1046,3.1028,3.0986,3.1025,3.1027,3.0992,3.1115,3.1068,3.1082,3.114,3.1262,3.1272,3.128,3.1356,3.1376,3.1392,0,0,0,0,0,0,3.0923,3.0932,3.091,3.0995,3.1017,3.1027,3.1075,3.1049,3.1083,3.1075,3.1052,3.1057,3.1139,3.1147,3.1095,3.1243,3.1182,3.1194,3.1235,3.1254,3.1268,3.1265,3.1028,0,0,0,0,0,3.0949,3.0994,3.0999,3.1075,3.1087,3.108,3.1104,3.1089,3.111,3.1119,3.1127,3.1151,3.1195,3.1224,3.1265,3.1364,3.1369,3.1411,3.1426,3.1438,3.145,3.1508,3.1528,3.1314,3.1314,3.1314,0,0,3.1002,3.1013,3.1042,3.109,3.1104,3.1154,3.1087,3.1141,3.1179,3.1128,3.1201,3.1208,3.1234,3.1323,3.1363,3.1332,3.151,3.145,3.146,3.1464,3.1519,3.1539,3.1557,3.132,3.1319,3.1318,0,0,3.1126,3.1137,3.1203,3.122,3.1244,3.1239,3.1256,3.1272,3.1275,3.1348,3.1312,3.1358,3.1433,3.1454,3.1475,3.1613,3.1583,3.1626,3.1705,3.1762,3.1779,3.1794,3.1846,3.1865,3.1637,3.1638,3.1638,0,3.1189,3.1261,3.124,3.1298,3.1322,3.1279,3.1348,3.1366,3.1402,3.1421,3.1386,3.1484,3.1497,3.1593,3.1628,3.1644,3.1665,3.1624,3.1778,3.1792,3.1806,3.1856,3.1876,3.1643,3.1642,3.1642,3.1641,0,3.134,3.1391,3.1442,3.148,3.1509,3.1572,3.1563,3.1596,3.158,3.158,3.1659,3.1674,3.172,3.1741,3.1724,3.1837,3.1818,3.1781,3.1719,3.1832,3.1879,3.1898,3.165,3.1649,3.1647,3.1646,0,0,3.1507,3.1536,3.1555,3.1574,3.1599,3.1639,3.1703,3.1747,3.1778,3.1806,3.1861,3.1929,3.1896,3.192,3.1906,3.1956,3.207,3.1913,3.1914,3.1945,3.2199,3.2229,3.2251,3.205,3.2054,3.2057,3.2198,0,3.1633,3.1741,3.1727,3.1832,3.1882,3.1844,3.19,3.1924,3.1927,3.1972,3.1975,3.2025,3.1977,3.1992,3.2039,3.2046,3.2121,3.2035,3.2104,3.2107,3.2101,3.2275,3.2304,3.2437,3.2216,3.2219,3.2222,0,3.1793,3.1829,3.1939,3.1962,3.1982,3.2033,3.2075,3.2117,3.2145,3.2144,3.2174,3.2153,3.222,3.2157,3.2252,3.2194,3.2223,3.2231,3.2236,3.2243,3.2172,3.2289,3.2479,3.25,3.225,3.2247,3.2245,0,3.1908,3.1983,3.2061,3.2077,3.2105,3.2142,3.2156,3.218,3.221,3.2248,3.2268,3.2313,3.2339,3.2376,3.2369,3.2323,3.2468,3.2403,3.2472,3.2473,3.2505,3.2503,3.2704,3.252,3.2519,3.2519,3.2518,0,3.2051,3.2121,3.2113,3.2161,3.224,3.2224,3.2304,3.2313,3.2336,3.2388,3.2358,3.2407,3.2394,3.2444,3.244,3.2522,3.2532,3.2536,3.2535,3.254,3.254,3.2559,3.2551,3.2524,3.2523,3.2522,3.2521,0,3.2192,3.2189,3.2272,3.2293,3.23,3.2358,3.2377,3.2424,3.2426,3.2492,3.2507,3.2511,3.2569,3.2566,3.2631,3.2628,3.2731,3.2717,3.2721,3.2719,3.279,3.2784,3.3011,3.3042,3.2835,3.2837,3.2839,0,3.2284,3.2338,3.2366,3.2398,3.2415,3.2466,3.2497,3.2486,3.2519,3.2559,3.2602,3.2657,3.27,3.2795,3.2806,3.2857,3.2846,3.2922,3.2853,3.2859,3.2851,3.2849,3.2856,3.2936,3.2938,3.294,3.2942,0,3.2449,3.2447,3.2491,3.2538,3.2576,3.2612,3.2645,3.2674,3.2666,3.2707,3.2766,3.28,3.2868,3.2924,3.2974,3.2991,3.2968,3.2964,3.2983,3.299,3.2991,3.2995,3.2761,3.2958,3.2957,3.2955,3.2955,3.2954,3.2571,3.2618,3.2647,3.27,3.2724,3.2757,3.2803,3.2813,3.2862,3.2916,3.2907,3.2974,3.3006,3.3071,3.3093,3.3148,3.3121,3.3148,3.3155,3.3162,3.3172,3.2982,3.3156,3.3156,3.3155,3.3155,3.3155,0,3.2737,3.2755,3.2803,3.2852,3.2895,3.2868,3.2905,3.2943,3.3003,3.3034,3.3079,3.3149,3.3206,3.3222,3.3277,3.3318,3.3309,3.3334,3.3331,3.3337,3.3191,3.317,3.334,3.334,3.334,3.334,3.334,3.334,3.2829,3.2909,3.2911,3.3006,3.3023,3.3088,3.3113,3.3144,3.317,3.325,3.3297,3.3307,3.3335,3.3392,3.3445,3.3448,3.3471,3.3501,3.3501,3.3365,3.3346,3.3328,3.3309,3.3505,3.3506,3.3642,3.3643,3.3644]},{"header":{"parameterUnit":"m.s-1","parameterCategory":1,"la1":30.2991,"la2":30.254,"lo1":-89.0895,"lo2":-89.0444,"dy":0.0017,"dx":0.0017,"nx":28,"ny":28,"refTime":"2024-08-06T03:00:00:Z","depth":0,"parameterNumber":3,"parameterNumberName":"V-component_of_WINDS"},"data":[0,0,0,0,0,0,0,0,0,0,0,0,0,0,0,0,0,0,0,0,0,0,0,0,0,0,0,0,0,0,0,0,0,0,0,0,0,0,0,0,0,0,0,0,0,0,0,0,0,0,0,0,0,0,0,0,0,0,0.0839,0.0842,0,0.1072,0.1075,0.1077,0.1099,0.1097,0.1094,0.1092,0.134,0.1349,0.1358,0,0,0,0,0,0,0,0,0,0,0,0,0,0.0423,0.0431,0.0839,0.0842,0.0845,0.1071,0.1075,0.1078,0.1099,0.1096,0.1093,0.1091,0.1337,0.1348,0.1359,0,0,0,0,0,0,0,0,0,0,0,0,0,0.0625,0.0433,0.0839,0.0883,0.0889,0.1071,0.1075,0.1079,0.11,0.1096,0.1093,0.1089,0.1334,0.1347,0.136,0.1517,0,0,0.1401,0.1407,0,0,0,0,0,0,0,0,0.0614,0.064,0.0873,0.088,0.0887,0.1052,0.1019,0.1226,0.1101,0.102,0.1092,0.1087,0.1248,0.1268,0.132,0.1529,0.1539,0.1402,0.141,0.1416,0.142,0,0,0,0,0,0,0,0.06,0.0631,0.0932,0.0877,0.0885,0.0894,0.0919,0.1059,0.1153,0.1027,0.1029,0.1056,0.1251,0.1308,0.1326,0.1543,0.1402,0.1414,0.1422,0.1427,0.1893,0.1897,0,0,0,0,0,0,0.0576,0.0619,0.0924,0.0939,0.0738,0.0905,0.0932,0.1003,0.1151,0.117,0.1059,0.1056,0.1286,0.1311,0.1335,0.153,0.1416,0.1428,0.1436,0.1889,0.1894,0.1899,0,0,0,0,0,0,0.0567,0.0603,0.0915,0.0779,0.082,0.0916,0.0996,0.101,0.1066,0.1175,0.1193,0.1098,0.1285,0.1316,0.1471,0.1539,0.1434,0.1447,0.1883,0.189,0.1896,0.192,0,0,0,0,0,0,0.0555,0.0599,0.0658,0.078,0.0827,0.1044,0.1,0.1017,0.1088,0.1086,0.1217,0.1235,0.1284,0.1451,0.1484,0.1555,0.1457,0.1878,0.1886,0.1894,0.1913,0.1926,0.1937,0,0,0,0,0,0.054,0.0657,0.0661,0.0698,0.0901,0.1048,0.1075,0.1126,0.1093,0.1154,0.1224,0.1231,0.1525,0.1467,0.1505,0.1581,0.1874,0.1884,0.1894,0.1908,0.1924,0.1937,0,0,0,0,0,0,0.0545,0.0674,0.068,0.0839,0.0932,0.1051,0.113,0.1141,0.1248,0.1242,0.1304,0.1334,0.1487,0.1549,0.1481,0.1741,0.1697,0.1714,0.1695,0.171,0.1722,0.1705,0.1468,0,0,0,0,0,0.0563,0.0668,0.0777,0.0908,0.0954,0.1033,0.1099,0.113,0.1231,0.1271,0.1352,0.1452,0.1567,0.1642,0.1754,0.1921,0.1952,0.1992,0.2004,0.2013,0.2029,0.2124,0.2144,0.1931,0.1931,0.193,0,0,0.0605,0.0689,0.0752,0.0911,0.0986,0.1097,0.1067,0.1185,0.1269,0.129,0.1441,0.1503,0.1619,0.1781,0.1856,0.1838,0.2094,0.2026,0.2032,0.2043,0.2136,0.2156,0.2174,0.1937,0.1936,0.1935,0,0,0.0738,0.081,0.0927,0.1003,0.1116,0.1168,0.1196,0.1313,0.1355,0.1506,0.1525,0.1626,0.1823,0.1904,0.1972,0.2133,0.2144,0.2168,0.2232,0.2323,0.234,0.2356,0.2415,0.2436,0.2183,0.2183,0.2183,0,0.0776,0.094,0.0987,0.1105,0.1175,0.1195,0.1316,0.1388,0.1534,0.1583,0.1559,0.1806,0.1885,0.2067,0.2106,0.2159,0.2195,0.2155,0.2333,0.2349,0.2364,0.2422,0.2444,0.2185,0.2185,0.2185,0.2185,0,0.0983,0.1097,0.1178,0.1314,0.1394,0.1512,0.158,0.1656,0.1679,0.1735,0.1889,0.1984,0.2116,0.2161,0.2187,0.2348,0.2332,0.232,0.2277,0.2386,0.2442,0.2464,0.2189,0.2188,0.2187,0.2187,0,0,0.1128,0.1286,0.1316,0.1378,0.1503,0.1594,0.1714,0.1839,0.1904,0.2003,0.2108,0.2272,0.2261,0.2338,0.2373,0.2453,0.2577,0.2431,0.2435,0.2457,0.2762,0.2772,0.2797,0.2583,0.2588,0.2591,0.2753,0,0.1276,0.1487,0.1533,0.1717,0.1824,0.1844,0.1949,0.2039,0.2094,0.2195,0.2257,0.2373,0.2348,0.2395,0.2474,0.2545,0.264,0.2533,0.2685,0.269,0.2658,0.2826,0.2837,0.2985,0.2775,0.2779,0.2781,0,0.1478,0.1579,0.1772,0.1883,0.193,0.2023,0.2142,0.2237,0.234,0.2374,0.2458,0.2484,0.2614,0.2562,0.2742,0.2669,0.2733,0.2777,0.2784,0.2803,0.2744,0.2851,0.3034,0.3057,0.2816,0.2813,0.281,0,0.1567,0.1751,0.189,0.1942,0.2075,0.214,0.22,0.2299,0.2371,0.2476,0.2524,0.2643,0.2709,0.2802,0.2861,0.2818,0.3037,0.299,0.3073,0.3071,0.3121,0.3117,0.3318,0.3157,0.3157,0.3157,0.3156,0,0.173,0.1848,0.1931,0.2018,0.2151,0.2203,0.2335,0.2395,0.2482,0.2583,0.2608,0.2702,0.2773,0.2878,0.2925,0.3068,0.3097,0.3131,0.3143,0.313,0.3126,0.3176,0.3168,0.3163,0.3161,0.316,0.3159,0,0.1853,0.1913,0.2067,0.2178,0.2209,0.2303,0.24,0.2487,0.254,0.2667,0.27,0.2786,0.2911,0.2978,0.3135,0.3166,0.3328,0.3332,0.3292,0.3297,0.3376,0.3369,0.3619,0.3655,0.3467,0.3469,0.347,0,0.1954,0.2045,0.2165,0.2232,0.2291,0.2399,0.2472,0.2527,0.2603,0.2727,0.2799,0.2923,0.3027,0.3226,0.3305,0.3425,0.3435,0.3514,0.3454,0.3438,0.3439,0.3434,0.3444,0.3525,0.3527,0.3529,0.353,0,0.2128,0.2152,0.2255,0.2368,0.2453,0.2546,0.2638,0.2692,0.2762,0.2847,0.2972,0.3052,0.3211,0.3336,0.3462,0.3526,0.3542,0.3547,0.3573,0.3563,0.3537,0.3554,0.3324,0.3542,0.3541,0.354,0.354,0.3539,0.2245,0.2327,0.2423,0.2537,0.2611,0.2696,0.2782,0.2845,0.295,0.3081,0.3107,0.3241,0.3343,0.3513,0.3581,0.3689,0.3673,0.371,0.372,0.3729,0.3733,0.3516,0.3712,0.3711,0.3711,0.3711,0.3711,0,0.2422,0.2484,0.2588,0.2714,0.2803,0.2804,0.2906,0.2982,0.3098,0.319,0.329,0.3436,0.3557,0.3644,0.3768,0.3837,0.3847,0.3868,0.3865,0.388,0.3739,0.3705,0.3858,0.3858,0.3858,0.3858,0.3858,0.3858,0.2525,0.2663,0.2699,0.2876,0.2939,0.3067,0.3125,0.3205,0.3278,0.3438,0.3537,0.3592,0.3683,0.3813,0.3925,0.3948,0.3994,0.4015,0.4039,0.3906,0.389,0.3875,0.3844,0.4023,0.4024,0.4171,0.4173,0.4174]}]]